DW8192 Weather Reports


Display with metric or nautical units.
time (UTC)temp
F
wind
direction
speed
MPH
gust
MPH
rain 1hr
in
rain 24hr
in
rain mn
in
humidity
%
barometer
mb
20181209190106 83 223 8.0 15.0 0.00 0.00 0.00 68 1015.0
20181209184529 82 237 6.0 12.0 0.00 0.00 0.00 68 1014.9
20181209180021 83 257 7.0 15.0 0.00 0.00 0.00 67 1015.1
20181209173053 84 206 8.0 14.0 0.00 0.00 0.00 65 1015.4
20181209170149 83 223 7.0 15.0 0.00 0.00 0.00 68 1016.2
20181209164510 83 196 6.0 14.0 0.00 0.00 0.00 68 1016.4
20181209161619 82 207 6.0 13.0 0.00 0.00 0.00 69 1016.3
20181209154643 83 198 6.0 12.0 0.00 0.00 0.00 68 1016.6
20181209153041 83 217 6.0 13.0 0.00 0.00 0.00 67 1016.7
20181209150053 82 177 9.0 14.0 0.00 0.00 0.00 68 1016.8
20181209143059 81 212 8.0 14.0 0.00 0.00 0.00 70 1016.8
20181209141515 81 212 8.0 19.0 0.00 0.00 0.00 70 1016.9
20181209134610 80 196 7.0 16.0 0.00 0.00 0.00 73 1016.9
20181209131619 78 194 6.0 12.0 0.00 0.00 0.00 77 1016.8
20181209130012 77 186 5.0 9.0 0.00 0.00 0.00 81 1016.7
20181209123119 75 167 5.0 10.0 0.00 0.00 0.00 84 1016.5
20181209120122 74 190 4.0 11.0 0.00 0.00 0.00 85 1016.5
20181209114524 74 185 5.0 10.0 0.00 0.00 0.00 85 1016.3
20181209111635 74 184 2.0 9.0 0.00 0.00 0.00 84 1016.4
20181209104652 74 184 3.0 8.0 0.00 0.00 0.00 84 1016.2
20181209103117 74 151 4.0 9.0 0.00 0.00 0.00 83 1016.2
20181209100134 74 176 4.0 8.0 0.00 0.00 0.00 82 1016.5
20181209094520 74 179 5.0 8.0 0.00 0.00 0.00 81 1016.6
20181209091720 75 154 4.0 9.0 0.00 0.00 0.00 79 1016.8
20181209084625 75 184 4.0 10.0 0.00 0.00 0.00 78 1016.9
20181209083037 75 178 5.0 10.0 0.00 0.00 0.00 78 1017.0
20181209080036 75 162 4.0 16.0 0.00 0.00 0.00 77 1017.1
20181209073128 76 120 5.0 13.0 0.00 0.00 0.00 76 1017.4
20181209071513 75 162 5.0 12.0 0.00 0.00 0.00 76 1017.6
20181209064550 74 152 3.0 8.0 0.00 0.00 0.00 79 1017.9
20181209061631 76 118 7.0 13.0 0.00 0.00 0.00 73 1018.3
20181209060014 76 125 9.0 14.0 0.00 0.00 0.00 72 1018.4
20181209053055 75 111 9.0 12.0 0.00 0.00 0.00 72 1018.8
20181209050149 76 128 8.0 14.0 0.00 0.00 0.00 71 1019.2
20181209044608 76 125 6.0 14.0 0.00 0.00 0.00 71 1019.4
20181209041611 76 151 7.0 13.0 0.00 0.00 0.00 70 1019.5
20181209040028 76 134 8.0 15.0 0.00 0.00 0.00 70 1019.6
20181209033111 76 173 10.0 16.0 0.00 0.00 0.00 69 1019.9
20181209030251 76 135 8.0 16.0 0.00 0.00 0.00 69 1020.1
20181209024523 76 129 6.0 14.0 0.00 0.00 0.00 68 1020.0
20181209021637 75 101 7.0 18.0 0.00 0.00 0.00 67 1020.1
20181209014624 75 134 8.0 14.0 0.00 0.00 0.00 67 1020.0
20181209013023 75 124 8.0 15.0 0.00 0.00 0.00 67 1019.9
20181209010039 75 122 7.0 15.0 0.00 0.00 0.00 65 1020.1
20181209003212 75 90 9.0 13.0 0.00 0.00 0.00 65 1020.3
20181209001549 75 95 7.0 12.0 0.00 0.00 0.00 65 1020.2
20181208234618 74 128 5.0 11.0 0.00 0.00 0.00 67 1020.3
20181208233011 75 111 8.0 15.0 0.00 0.00 0.00 65 1020.2
20181208230046 75 90 10.0 17.0 0.00 0.00 0.00 64 1020.3
20181208221557 74 94 10.0 16.0 0.00 0.00 0.00 63 1020.0
20181208220010 75 86 6.0 16.0 0.00 0.00 0.00 63 1020.1
20181208213116 75 90 10.0 15.0 0.00 0.00 0.00 61 1019.9
20181208211512 76 110 8.0 15.0 0.00 0.00 0.00 63 1020.0
20181208204618 75 72 10.0 15.0 0.00 0.00 0.00 63 1020.0
20181208203045 76 88 10.0 17.0 0.00 0.00 0.00 63 1020.1
20181208200117 76 98 9.0 18.0 0.00 0.00 0.00 63 1020.2
20181208194510 76 103 11.0 17.0 0.00 0.00 0.00 63 1020.1